Vertical_Velocity
-1 -1 -1 -1 -1 -0 0 -1 1 -1 -1 -1 -2 -2 -1 -1 -0 -0 2 -4 4 7 5 -2 -1 -4 -4 -3 -3 -3 -1 -1 -1 -1 -1 -1 -1 -2 -1 -1 -1 -1 -1 -1
-1 -1 -1 -1 -1 -2 -2 -2 -1 -1 0 -2 -1 -2 -1 -0 -1 -2 -3 0 2 0 -1 1 -3 -7 -2 1 -0 -1 -2 -3 -2 -1 -1 0 -0 -1 -1 -1 -1 -1 -0 -0
-1 -0 -0 -0 -1 -1 -1 -1 -1 -0 -1 -1 -0 -1 -1 0 -0 -1 1 -0 1 -1 -3 -5 -3 -3 -1 -1 -2 -1 0 -0 -1 -2 -0 -1 -0 0 -0 -0 -1 -1 -1 -1
-0 -0 -1 -1 -1 -1 -1 -1 -2 -2 -1 -1 -1 2 -5 0 -0 -1 1 2 -2 -3 -2 -1 -0 1 0 -2 -3 1 0 0 1 1 2 -0 0 -1 -1 1 1 -0 -1 0
-0 -2 -2 -2 -1 -1 -1 -1 -1 -2 -1 -2 -2 -1 -2 -1 -1 0 -2 -1 -1 -1 -2 -0 -0 -3 -4 -0 2 1 -1 -1 1 3 0 1 1 -0 -0 -1 -0 0 0 0
-1 -1 -1 -1 -0 -1 -0 1 1 0 -1 -1 1 -3 1 1 -0 -1 -0 -0 -1 -1 0 -2 0 1 1 -1 -3 -1 1 0 -1 -1 -1 -1 0 1 -0 2 1 0 0 1
0 -0 -1 -1 -2 -1 -2 -3 -0 0 2 -2 -1 0 -1 -1 -2 -3 -2 -1 0 -1 0 1 2 1 1 1 -2 2 1 -4 -1 3 3 1 -0 1 0 1 -0 1 1 0
-1 -0 -1 0 -1 0 -1 -3 -5 -2 -2 -1 0 1 -1 -1 -1 -1 -4 -0 -1 1 2 -0 1 -0 1 -1 -3 1 -1 -3 3 3 0 -1 -3 -1 -1 -2 2 -2 -1 -0
-1 -1 -1 -1 -0 -0 -1 -2 0 -1 -3 -1 1 3 -2 -0 -0 -2 -1 -1 0 0 3 -1 -3 -3 -1 -2 -2 2 4 3 -4 -3 -2 0 1 1 -1 -1 2 -2 0 0
-0 -0 -0 0 -0 0 0 1 -2 1 -3 -1 -2 -1 -2 -2 -1 -3 -1 1 1 2 6 -3 -1 0 -1 -1 -3 -2 0 -0 -0 -1 -0 0 0 -0 0 1 -0 -0 1 2
-0 0 1 0 1 -0 -1 -0 1 -0 -1 -3 -0 -3 1 -2 -2 -1 0 1 0 -1 6 -0 -0 -1 1 0 1 0 -1 -3 -1 1 0 -2 -3 -0 0 2 0 -1 2 -0
0 1 1 -1 -0 -1 -1 -1 1 -0 -0 -3 -1 -1 -0 -3 -0 -1 -2 -4 -0 1 3 -1 0 -0 -2 -1 0 -1 -2 -2 -2 -2 -3 -1 -0 -2 -0 1 1 2 2 3
-1 2 -1 -0 -0 1 -3 0 -3 -0 -1 -1 1 -5 -0 -1 -3 -1 -2 -4 -3 -0 1 -2 0 2 2 1 0 -0 0 0 -2 -2 -1 -4 -4 -0 -2 -2 -2 -1 -1 -0
-1 2 -1 -1 2 2 -3 -1 -3 -2 -3 3 -4 11 -8 -6 -3 -5 -5 -2 -2 -0 -0 -2 -1 -1 1 0 2 1 -0 1 -1 1 1 2 1 -2 -2 -2 -4 -1 2 1
-0 1 -0 -3 -1 6 3 -1 -6 -1 -2 -8 6 -6 -4 3 2 -0 -0 -4 -4 -3 -5 -2 -4 -1 1 -1 1 1 1 0 -1 -1 1 -2 -2 -1 -1 -0 0 -2 -2 -1
-0 3 1 -0 -2 1 11 -2 -3 -6 -3 -3 -4 7 -13 -1 -2 -2 1 0 1 -0 -1 -2 -1 -2 -5 -0 3 1 2 0 -0 -1 -3 -1 0 0 -1 -1 -1 0 -1 -1
-0 -1 -2 8 -1 -2 12 2 1 -1 -2 -7 -1 -6 1 2 -8 -2 2 -5 2 2 -0 -1 -1 -3 0 -1 -1 -0 0 -0 -1 -2 -1 0 0 -1 1 -0 -0 -1 -1 -0
2 -2 -6 -3 -1 -0 6 6 3 0 1 -5 2 -1 -4 -3 0 1 -4 3 -1 -1 -1 -1 -0 -1 1 0 -1 -0 0 -1 -0 5 0 0 -3 -3 -1 1 2 0 -1 -1
-0 -2 -9 -13 -3 3 14 5 3 -2 29 -1 -5 -2 -3 -1 4 -6 -1 -3 -1 1 -1 -1 -1 -1 -1 0 0 -1 2 2 2 2 6 2 3 1 1 -5 -5 -2 1 0
0 -1 -5 -1 -17 -5 10 4 7 -4 1 3 -4 -6 -3 -0 0 2 1 -3 -0 -3 -2 -2 -1 -1 -2 0 1 3 3 -2 1 -7 -2 5 3 0 -1 -1 0 -1 -1 -4
-0 -1 -2 -5 -21 -6 24 1 3 3 -12 -3 -3 -6 -5 -5 -0 0 0 -1 -1 -0 0 1 -1 -2 -1 -4 -2 3 4 0 -1 -2 -4 -6 -3 1 1 4 1 -3 -3 -0
-1 -10 7 -5 -13 -16 15 3 -1 1 3 -5 -8 -13 -8 -4 -1 -7 0 -1 -1 -2 -1 -1 2 -1 -1 -2 -2 -5 -2 -1 -3 1 1 1 -3 -1 0 2 -1 1 -1 -2
-21 4 -9 -2 -1 5 7 2 -1 9 0 -3 -5 -7 -10 -4 -1 0 1 -3 -1 -0 -1 -4 -1 2 -3 -0 1 1 -3 -1 1 -2 -1 -1 4 -3 -3 1 2 3 3 0
-0 7 -15 -15 52 7 6 5 6 -9 -2 -3 1 -3 -9 -11 -6 1 -2 1 -3 -2 3 -3 1 2 0 -4 3 1 1 -4 -0 -2 -3 -5 -1 1 -11 -0 -2 5 -1 6
7 2 18 -9 28 -9 12 7 4 3 -4 -2 1 -8 2 -11 4 -7 0 -1 -3 0 -1 -1 -0 2 1 -5 1 4 1 -1 -2 -2 0 1 1 -2 -0 -2 1 -1 -2 3
13 29 -13 -36 10 -11 12 1 11 -6 -1 5 -13 3 4 -9 -8 -4 -2 -1 -4 -2 -2 -1 -3 2 2 -3 -1 0 1 -1 0 3 1 1 5 4 2 2 3 0 -1 -0
Height
5909 5909 5909 5909 5909 5909 5909 5908 5908 5908 5907 5907 5905 5905 5904 5904 5902 5901 5900 5899 5898 5895 5893 5891 5891 5889 5887 5884 5881 5878 5876 5873 5870 5867 5863 5860 5857 5854 5850 5846 5843 5839 5835 5832
5909 5909 5908 5908 5908 5908 5908 5907 5907 5907 5906 5906 5905 5903 5902 5902 5901 5900 5899 5898 5895 5893 5891 5890 5888 5888 5885 5882 5879 5877 5874 5871 5868 5865 5862 5858 5855 5852 5849 5845 5841 5837 5833 5830
5909 5910 5909 5908 5908 5907 5907 5906 5905 5905 5904 5903 5903 5901 5900 5899 5898 5897 5896 5895 5892 5890 5889 5888 5887 5885 5882 5879 5877 5874 5871 5868 5865 5862 5859 5856 5853 5850 5847 5843 5840 5836 5832 5828
5911 5910 5910 5909 5908 5907 5906 5906 5905 5904 5902 5901 5900 5900 5896 5896 5895 5894 5892 5891 5889 5887 5886 5885 5884 5882 5878 5876 5874 5871 5868 5865 5862 5859 5855 5852 5849 5846 5843 5839 5836 5832 5829 5825
5912 5911 5911 5910 5909 5908 5908 5906 5904 5903 5901 5900 5898 5897 5894 5892 5891 5890 5888 5887 5885 5884 5883 5881 5879 5876 5874 5872 5870 5866 5864 5860 5858 5855 5851 5848 5844 5841 5838 5835 5831 5828 5824 5821
5911 5911 5910 5909 5909 5908 5906 5905 5903 5901 5900 5899 5896 5895 5892 5890 5888 5886 5884 5883 5881 5880 5878 5876 5874 5872 5870 5867 5864 5861 5858 5854 5852 5849 5846 5842 5839 5836 5832 5829 5825 5822 5819 5816
5910 5910 5909 5909 5908 5907 5906 5905 5903 5902 5899 5897 5894 5892 5890 5887 5885 5884 5882 5879 5877 5875 5872 5871 5868 5866 5863 5860 5858 5854 5851 5847 5844 5842 5839 5836 5833 5830 5826 5823 5819 5816 5813 5810
5909 5909 5908 5906 5906 5905 5904 5903 5902 5901 5899 5896 5892 5889 5887 5884 5882 5880 5879 5876 5873 5871 5868 5865 5862 5859 5856 5852 5850 5847 5843 5840 5836 5833 5831 5829 5826 5823 5819 5816 5813 5809 5806 5804
5907 5906 5906 5905 5903 5903 5901 5901 5900 5899 5897 5895 5892 5888 5884 5880 5877 5877 5875 5872 5869 5866 5863 5859 5855 5852 5849 5846 5843 5839 5836 5832 5828 5825 5822 5820 5817 5814 5811 5808 5806 5801 5799 5796
5905 5904 5903 5902 5901 5901 5899 5898 5897 5893 5892 5890 5889 5885 5881 5877 5875 5872 5870 5867 5865 5862 5858 5853 5850 5846 5844 5840 5837 5834 5830 5826 5821 5817 5813 5810 5807 5805 5802 5800 5797 5793 5791 5789
5902 5902 5902 5900 5899 5898 5897 5895 5893 5891 5889 5885 5883 5880 5876 5873 5869 5865 5863 5861 5859 5856 5852 5848 5844 5840 5837 5834 5831 5827 5824 5820 5816 5811 5807 5803 5799 5796 5793 5791 5787 5785 5783 5780
5900 5899 5898 5897 5896 5895 5894 5892 5889 5888 5887 5882 5880 5879 5872 5867 5865 5861 5857 5853 5850 5848 5846 5842 5838 5834 5830 5827 5824 5821 5817 5813 5809 5805 5801 5796 5792 5788 5785 5782 5779 5776 5774 5771
5896 5896 5895 5894 5894 5892 5890 5888 5886 5884 5881 5879 5875 5876 5866 5862 5861 5855 5851 5847 5844 5840 5837 5834 5830 5827 5823 5819 5816 5813 5810 5806 5802 5798 5794 5789 5785 5781 5777 5774 5771 5768 5765 5762
5890 5891 5889 5888 5886 5886 5886 5885 5882 5880 5875 5874 5870 5872 5864 5859 5856 5850 5844 5841 5838 5833 5830 5827 5822 5820 5816 5812 5808 5804 5801 5797 5794 5790 5786 5782 5778 5774 5770 5765 5762 5759 5756 5753
5883 5884 5883 5881 5880 5879 5879 5879 5876 5875 5870 5866 5864 5861 5852 5853 5849 5844 5839 5835 5831 5827 5823 5819 5815 5811 5808 5804 5800 5796 5792 5789 5785 5781 5778 5775 5772 5767 5763 5759 5755 5751 5748 5745
5874 5876 5875 5876 5873 5871 5874 5871 5870 5869 5865 5862 5858 5855 5848 5845 5840 5835 5831 5828 5825 5820 5816 5812 5808 5803 5799 5795 5791 5788 5784 5781 5777 5774 5770 5767 5763 5759 5756 5752 5749 5744 5740 5736
5867 5866 5864 5865 5865 5862 5867 5866 5862 5861 5859 5854 5851 5846 5841 5839 5834 5829 5825 5820 5815 5811 5807 5804 5799 5795 5791 5787 5783 5780 5776 5773 5769 5765 5763 5759 5756 5752 5747 5743 5739 5736 5733 5729
5858 5857 5854 5853 5853 5851 5853 5857 5855 5850 5850 5845 5843 5838 5834 5829 5825 5820 5815 5811 5806 5802 5798 5795 5791 5787 5782 5778 5774 5771 5767 5764 5761 5756 5753 5750 5747 5743 5739 5735 5731 5727 5724 5721
5848 5847 5845 5843 5842 5841 5842 5843 5843 5837 5842 5835 5830 5827 5824 5818 5814 5809 5805 5799 5796 5792 5789 5785 5781 5777 5773 5769 5765 5761 5758 5754 5751 5748 5744 5740 5737 5734 5731 5727 5723 5719 5717 5713
5838 5836 5835 5834 5830 5829 5829 5834 5830 5826 5825 5823 5819 5816 5813 5807 5803 5799 5794 5791 5787 5783 5780 5776 5772 5769 5765 5762 5758 5753 5749 5744 5740 5737 5733 5730 5727 5723 5719 5716 5713 5710 5706 5704
5826 5826 5824 5822 5819 5819 5823 5821 5819 5818 5814 5809 5805 5804 5800 5795 5791 5788 5783 5781 5776 5772 5769 5766 5763 5759 5756 5752 5749 5746 5742 5737 5732 5728 5724 5720 5716 5713 5710 5707 5703 5699 5698 5694
5812 5812 5814 5812 5808 5809 5810 5809 5809 5806 5802 5798 5795 5792 5786 5781 5779 5775 5772 5768 5765 5761 5758 5754 5751 5748 5744 5741 5737 5734 5730 5727 5724 5720 5714 5710 5706 5702 5698 5695 5692 5689 5685 5683
5799 5802 5799 5797 5797 5798 5798 5793 5791 5790 5787 5785 5782 5778 5770 5767 5767 5763 5761 5756 5753 5749 5746 5742 5739 5736 5732 5729 5725 5723 5720 5716 5713 5709 5705 5700 5696 5692 5688 5684 5681 5677 5674 5670
5786 5787 5783 5780 5791 5787 5781 5779 5776 5774 5773 5772 5769 5762 5755 5754 5751 5750 5747 5744 5740 5736 5733 5730 5727 5724 5720 5716 5714 5711 5709 5707 5702 5697 5691 5688 5684 5680 5678 5673 5668 5665 5661 5656
5772 5771 5772 5770 5774 5772 5765 5761 5763 5761 5759 5756 5753 5746 5743 5739 5739 5736 5734 5730 5725 5722 5719 5716 5714 5711 5708 5703 5701 5699 5695 5692 5688 5684 5679 5674 5668 5664 5661 5659 5656 5650 5647 5643
5758 5758 5756 5758 5757 5749 5745 5746 5748 5745 5742 5737 5733 5732 5728 5724 5723 5721 5719 5715 5712 5710 5707 5705 5701 5698 5693 5690 5687 5683 5679 5676 5672 5668 5664 5659 5653 5646 5642 5639 5638 5636 5631 5629